Hourly Weather Nukus

Today, 8 July, Wednesday

Time Temperature Precipitation Wind Pressure Humidity
00:00 +27°C° 0 mm 3 mps 747 mmHg 35%
01:00 +27°C° 0 mm 3 mps 747 mmHg 38%
02:00 +26°C° 0 mm 3 mps 747 mmHg 42%
03:00 +25°C° 0 mm 3 mps 747 mmHg 46%
04:00 +25°C° 0 mm 3 mps 747 mmHg 50%
05:00 +27°C° 0 mm 3 mps 747 mmHg 47%
06:00 +28°C° 0 mm 3 mps 748 mmHg 43%
07:00 +30°C° 0 mm 3 mps 748 mmHg 40%
08:00 +33°C° 0 mm 4 mps 748 mmHg 34%
09:00 +35°C° 0 mm 4 mps 748 mmHg 28%
10:00 +38°C° 0 mm 4 mps 748 mmHg 22%
11:00 +40°C° 0 mm 5 mps 747 mmHg 20%
12:00 +41°C° 0 mm 5 mps 747 mmHg 17%
13:00 +42°C° 0 mm 6 mps 747 mmHg 15%
14:00 +42°C° 0 mm 6 mps 747 mmHg 16%
15:00 +41°C° 0 mm 7 mps 746 mmHg 17%
16:00 +41°C° 0 mm 7 mps 746 mmHg 18%
17:00 +39°C° 0 mm 7 mps 746 mmHg 20%
18:00 +38°C° 0 mm 6 mps 746 mmHg 21%
19:00 +36°C° 0 mm 6 mps 746 mmHg 23%
20:00 +33°C° 0 mm 5 mps 746 mmHg 28%
21:00 +30°C° 0 mm 4 mps 746 mmHg 33%
22:00 +28°C° 0 mm 3 mps 746 mmHg 38%
23:00 +27°C° 0 mm 3 mps 746 mmHg 42%

Tomorrow, 9 July, Thursday

Time Temperature Precipitation Wind Pressure Humidity
00:00 +26°C° 0 mm 2 mps 745 mmHg 45%
01:00 +25°C° 0 mm 2 mps 745 mmHg 48%
02:00 +24°C° 0 mm 2 mps 745 mmHg 49%
03:00 +24°C° 0 mm 2 mps 745 mmHg 49%
04:00 +24°C° 0 mm 2 mps 745 mmHg 49%
05:00 +27°C° 0 mm 2 mps 745 mmHg 43%
06:00 +29°C° 0 mm 3 mps 745 mmHg 37%
07:00 +31°C° 0 mm 3 mps 745 mmHg 31%
08:00 +34°C° 0 mm 3 mps 746 mmHg 27%
09:00 +37°C° 0 mm 4 mps 746 mmHg 23%
10:00 +40°C° 0 mm 4 mps 746 mmHg 19%
11:00 +41°C° 0 mm 5 mps 745 mmHg 17%
12:00 +42°C° 0 mm 5 mps 745 mmHg 16%
13:00 +45°C° 0 mm 6 mps 745 mmHg 15%
14:00 +44°C° 0 mm 6 mps 744 mmHg 15%
15:00 +44°C° 0 mm 7 mps 744 mmHg 15%
16:00 +43°C° 0 mm 8 mps 744 mmHg 15%
17:00 +40°C° 0 mm 8 mps 744 mmHg 18%
18:00 +39°C° 0 mm 8 mps 744 mmHg 20%
19:00 +37°C° 0 mm 9 mps 744 mmHg 23%
20:00 +34°C° 0 mm 8 mps 745 mmHg 26%
21:00 +32°C° 0 mm 7 mps 745 mmHg 30%
22:00 +30°C° 0 mm 6 mps 745 mmHg 33%
23:00 +29°C° 0 mm 5 mps 745 mmHg 33%

Day after tomorrow, 10 July, Friday

Time Temperature Precipitation Wind Pressure Humidity
00:00 +28°C° 0 mm 5 mps 745 mmHg 33%
01:00 +28°C° 0 mm 4 mps 745 mmHg 33%
02:00 +27°C° 0 mm 3 mps 745 mmHg 35%
03:00 +27°C° 0 mm 3 mps 746 mmHg 36%
04:00 +26°C° 0 mm 3 mps 746 mmHg 37%
05:00 +28°C° 0 mm 3 mps 746 mmHg 34%
06:00 +30°C° 0 mm 3 mps 746 mmHg 31%
07:00 +31°C° 0 mm 3 mps 747 mmHg 28%
08:00 +35°C° 0 mm 4 mps 747 mmHg 24%
09:00 +37°C° 0 mm 4 mps 747 mmHg 21%
10:00 +40°C° 0 mm 5 mps 747 mmHg 17%
11:00 +40°C° 0 mm 5 mps 747 mmHg 16%
12:00 +41°C° 0 mm 6 mps 747 mmHg 15%
13:00 +41°C° 0 mm 7 mps 747 mmHg 14%
14:00 +41°C° 0 mm 8 mps 747 mmHg 15%
15:00 +42°C° 0 mm 9 mps 746 mmHg 15%
16:00 +42°C° 0 mm 10 mps 746 mmHg 15%
17:00 +39°C° 0 mm 9 mps 747 mmHg 18%
18:00 +37°C° 0 mm 9 mps 747 mmHg 21%
19:00 +34°C° 0 mm 9 mps 747 mmHg 24%
20:00 +33°C° 0 mm 8 mps 748 mmHg 28%
21:00 +30°C° 0 mm 6 mps 748 mmHg 32%
22:00 +28°C° 0 mm 5 mps 748 mmHg 36%
23:00 +27°C° 0 mm 5 mps 748 mmHg 39%

11 July, Saturday

Time Temperature Precipitation Wind Pressure Humidity
00:00 +26°C° 0 mm 4 mps 748 mmHg 43%
01:00 +26°C° 0 mm 4 mps 748 mmHg 46%
02:00 +25°C° 0 mm 4 mps 748 mmHg 50%
03:00 +25°C° 0 mm 4 mps 748 mmHg 53%
04:00 +25°C° 0 mm 4 mps 748 mmHg 56%
05:00 +27°C° 0 mm 5 mps 749 mmHg 48%
06:00 +29°C° 0 mm 5 mps 749 mmHg 41%
07:00 +32°C° 0 mm 5 mps 749 mmHg 33%
08:00 +35°C° 0 mm 5 mps 749 mmHg 27%
09:00 +37°C° 0 mm 5 mps 749 mmHg 21%
10:00 +41°C° 0 mm 5 mps 749 mmHg 15%
11:00 +41°C° 0 mm 5 mps 749 mmHg 13%
12:00 +42°C° 0 mm 5 mps 749 mmHg 12%
13:00 +43°C° 0 mm 5 mps 748 mmHg 11%
14:00 +44°C° 0 mm 7 mps 748 mmHg 12%
15:00 +44°C° 0 mm 8 mps 748 mmHg 12%
16:00 +44°C° 0 mm 9 mps 748 mmHg 12%
17:00 +42°C° 0 mm 9 mps 748 mmHg 17%
18:00 +39°C° 0 mm 9 mps 748 mmHg 22%
19:00 +36°C° 0 mm 10 mps 748 mmHg 26%
20:00 +34°C° 0 mm 8 mps 748 mmHg 31%
21:00 +32°C° 0 mm 7 mps 748 mmHg 36%
22:00 +29°C° 0 mm 5 mps 748 mmHg 41%
23:00 +29°C° 0 mm 5 mps 748 mmHg 43%

12 July, Sunday

Time Temperature Precipitation Wind Pressure Humidity
00:00 +28°C° 0 mm 4 mps 748 mmHg 45%
01:00 +28°C° 0 mm 4 mps 748 mmHg 47%
02:00 +27°C° 0 mm 4 mps 747 mmHg 48%
03:00 +27°C° 0 mm 4 mps 747 mmHg 50%
04:00 +27°C° 0 mm 4 mps 747 mmHg 51%
05:00 +29°C° 0 mm 4 mps 747 mmHg 45%
06:00 +32°C° 0 mm 5 mps 747 mmHg 38%
07:00 +35°C° 0 mm 5 mps 747 mmHg 32%
08:00 +38°C° 0 mm 6 mps 747 mmHg 27%
09:00 +40°C° 0 mm 6 mps 747 mmHg 22%
10:00 +43°C° 0 mm 7 mps 747 mmHg 17%
11:00 +44°C° 0 mm 8 mps 747 mmHg 16%
12:00 +45°C° 0 mm 8 mps 746 mmHg 14%
13:00 +46°C° 0 mm 8 mps 746 mmHg 12%
14:00 +45°C° 0 mm 9 mps 746 mmHg 11%
15:00 +45°C° 0 mm 9 mps 745 mmHg 11%
16:00 +45°C° 0 mm 9 mps 745 mmHg 10%
17:00 +43°C° 0 mm 9 mps 745 mmHg 12%
18:00 +40°C° 0 mm 9 mps 745 mmHg 14%
19:00 +38°C° 0 mm 9 mps 745 mmHg 16%
20:00 +35°C° 0 mm 8 mps 745 mmHg 24%
21:00 +33°C° 0 mm 7 mps 745 mmHg 33%
22:00 +29°C° 0 mm 6 mps 746 mmHg 41%
23:00 +29°C° 0 mm 5 mps 745 mmHg 38%

13 July, Monday

Time Temperature Precipitation Wind Pressure Humidity
00:00 +29°C° 0 mm 5 mps 745 mmHg 35%
01:00 +29°C° 0 mm 4 mps 745 mmHg 31%
02:00 +29°C° 0 mm 4 mps 745 mmHg 29%
03:00 +29°C° 0 mm 5 mps 745 mmHg 26%
04:00 +28°C° 0 mm 5 mps 745 mmHg 24%
05:00 +30°C° 0 mm 6 mps 745 mmHg 20%
06:00 +33°C° 0 mm 7 mps 745 mmHg 17%
07:00 +37°C° 0 mm 8 mps 746 mmHg 14%
08:00 +38°C° 0 mm 9 mps 746 mmHg 12%
09:00 +39°C° 0 mm 9 mps 746 mmHg 11%
10:00 +42°C° 0 mm 10 mps 746 mmHg 9%
11:00 +43°C° 0 mm 10 mps 745 mmHg 9%
12:00 +44°C° 0 mm 10 mps 745 mmHg 9%
13:00 +45°C° 0 mm 9 mps 745 mmHg 9%
14:00 +45°C° 0 mm 9 mps 744 mmHg 9%
15:00 +45°C° 0 mm 9 mps 744 mmHg 9%
16:00 +47°C° 0 mm 9 mps 744 mmHg 9%
17:00 +44°C° 0 mm 8 mps 744 mmHg 10%
18:00 +43°C° 0 mm 7 mps 744 mmHg 11%
19:00 +41°C° 0 mm 6 mps 744 mmHg 12%
20:00 +39°C° 0 mm 6 mps 744 mmHg 15%
21:00 +35°C° 0 mm 6 mps 744 mmHg 19%
22:00 +33°C° 0 mm 5 mps 744 mmHg 22%
23:00 +33°C° 0 mm 5 mps 744 mmHg 21%
Show more